1486450800.39,48715,10.25,72718.5,-3.95,-22.57,-27.55,0,*57
1486450801.6,48716,10.25,72716.0,-3.95,-22.57,-27.55,0,*54
1486450802.81,48717,10.25,72722.3,-3.95,-22.63,-27.55,0,*52
1486450804.03,48718,10.25,72720.0,-3.95,-22.57,-27.51,0,*5E
1486450805.27,48719,10.25,72718.8,-3.95,-22.47,-27.55,0,*5A
1486450806.48,48720,10.25,72716.0,-3.95,-22.57,-27.67,0,*50
1486450807.7,48721,10.25,72716.3,-3.95,-22.63,-27.67,0,*56
1486450808.96,48722,10.25,72718.0,-3.95,-22.77,-27.83,0,*5A
1486450810.19,48723,10.25,72720.8,-3.95,-22.73,-27.71,0,*52
1486450811.4,48724,10.25,72716.8,-3.95,-22.63,-27.67,0,*53
1486450812.62,48725,10.25,72720.8,-3.95,-22.57,-27.71,0,*52
1486450813.83,48726,10.25,72722.0,-3.95,-22.63,-27.67,0,*51
1486450815.04,48727,10.25,72722.0,-3.95,-22.63,-27.67,0,*50
1486450816.25,48728,10.25,72718.8,-3.95,-22.63,-27.71,0,*58
1486450817.52,48729,10.25,72722.0,-3.95,-22.77,-27.83,0,*51
1486450818.77,48730,10.25,72716.0,-3.95,-22.73,-27.83,0,*5D
1486450820.03,48731,10.25,72722.0,-3.95,-22.73,-27.83,0,*5C
1486450821.24,48732,10.25,72718.0,-3.95,-22.67,-27.77,0,*51
1486450822.48,48733,10.25,72720.0,-3.95,-22.77,-27.71,0,*57
1486450823.74,48734,10.25,72716.3,-3.95,-22.77,-27.83,0,*5D
1486450825.01,48735,10.25,72716.0,-3.95,-22.77,-27.83,0,*5C
1486450826.27,48736,10.25,72716.5,-3.95,-22.73,-27.83,0,*5B
1486450827.53,48737,10.25,72722.0,-3.95,-22.77,-27.83,0,*5E
1486450828.8,48738,10.25,72718.8,-3.95,-22.77,-27.83,0,*51
1486450830.03,48739,10.25,72718.0,-3.95,-22.73,-27.71,0,*59
1486450831.24,48740,10.25,72718.8,-3.95,-22.67,-27.71,0,*52
1486450832.46,48741,10.25,72720.5,-3.95,-22.57,-27.67,0,*57
1486450833.67,48742,10.25,72718.0,-3.95,-22.57,-27.55,0,*55
1486450834.91,48743,10.25,72718.3,-3.97,-22.63,-27.71,0,*57
1486450836.13,48744,10.25,72722.5,-3.95,-22.57,-27.67,0,*52
1486450837.37,48745,10.25,72716.8,-3.97,-22.67,-27.71,0,*55
1486450838.59,48746,10.25,72720.5,-3.95,-22.57,-27.55,0,*51
1486450839.81,48747,10.25,72716.5,-3.95,-22.57,-27.67,0,*51
1486450841.07,48748,10.25,72722.5,-3.97,-22.63,-27.61,0,*5D
1486450842.28,48749,10.25,72718.0,-3.95,-22.63,-27.71,0,*5F
1486450843.51,48750,10.25,72722.0,-3.97,-22.63,-27.77,0,*53
1486450844.73,48751,10.25,72718.8,-3.95,-22.57,-27.55,0,*57
1486450845.94,48752,10.25,72720.0,-3.95,-22.63,-27.55,0,*53
1486450847.15,48753,10.25,72720.3,-3.95,-22.63,-27.67,0,*53
1486450848.37,48754,10.25,72718.5,-3.95,-22.57,-27.67,0,*53
1486450849.6,48755,10.25,72716.8,-3.95,-22.63,-27.83,0,*5F
1486450850.84,48756,10.25,72720.3,-3.93,-22.57,-27.71,0,*50
1486450852.08,48757,10.25,72720.8,-3.97,-22.67,-27.71,0,*56
1486450853.29,48758,10.25,72718.8,-3.95,-22.63,-27.71,0,*5F
1486450854.5,48759,10.25,72718.5,-3.95,-22.63,-27.67,0,*59
1486450855.72,48760,10.25,72718.8,-3.95,-22.57,-27.67,0,*54
1486450856.93,48761,10.25,72722.3,-3.95,-22.63,-27.67,0,*52
1486450858.14,48762,10.25,72722.0,-3.95,-22.57,-27.55,0,*57
1486450859.35,48763,10.25,72722.3,-3.95,-22.63,-27.67,0,*50
1486450860.58,48764,10.25,72722.0,-3.95,-22.63,-27.83,0,*5D
1486450861.82,48765,10.25,72718.3,-3.95,-22.63,-27.83,0,*5C
1486450863.09,48766,10.25,72716.8,-3.97,-22.77,-27.89,0,*52
1486450864.38,48767,10.25,72718.0,-3.97,-22.77,-27.83,0,*59
1486450865.62,48768,10.25,72720.0,-3.95,-22.73,-27.71,0,*5D
1486450866.89,48769,10.25,72716.3,-3.97,-22.77,-27.71,0,*5A
1486450868.12,48770,10.25,72718.0,-3.95,-22.73,-27.71,0,*54
1486450869.38,48771,10.25,72722.0,-3.95,-22.73,-27.83,0,*58
1486450870.64,48772,10.25,72720.8,-3.95,-22.77,-27.83,0,*5F
1486450871.9,48773,10.25,72718.5,-3.95,-22.73,-27.83,0,*5A
1486450873.16,48774,10.25,72718.3,-3.95,-22.73,-27.83,0,*5D
1486450874.4,48775,10.25,72720.3,-3.97,-22.63,-27.77,0,*54
1486450875.64,48776,10.25,72720.3,-3.97,-22.63,-27.89,0,*56
1486450876.9,48777,10.25,72722.0,-3.95,-22.77,-27.83,0,*5A
1486450878.16,48778,10.25,72720.5,-3.95,-22.73,-27.83,0,*51
1486450879.4,48779,10.25,72720.0,-3.95,-22.77,-27.89,0,*5E
1486450880.64,48780,10.25,72720.8,-3.95,-22.77,-27.89,0,*58
1486450881.91,48781,10.25,72720.3,-3.95,-22.77,-27.99,0,*58
1486450883.12,48782,10.25,72722.3,-3.95,-22.87,-27.89,0,*55
1486450884.36,48783,10.25,72720.3,-3.97,-22.93,-27.93,0,*58
1486450885.6,48784,10.25,72724.8,-3.97,-22.83,-27.93,0,*5E
1486450886.86,48785,10.25,72722.8,-3.95,-22.73,-27.83,0,*53
1486450888.12,48786,10.25,72716.8,-3.95,-22.73,-27.83,0,*50
1486450889.35,48787,10.25,72722.0,-3.95,-22.73,-27.71,0,*5C
1486450890.56,48788,10.25,72726.0,-3.95,-22.63,-27.71,0,*52
1486450891.79,48789,10.25,72716.5,-3.95,-22.73,-27.71,0,*52
1486450893.03,48790,10.25,72720.8,-3.95,-22.73,-27.71,0,*5A
1486450894.29,48791,10.25,72720.5,-3.95,-22.73,-27.83,0,*56
1486450895.54,48792,10.25,72722.0,-3.95,-22.73,-27.83,0,*55
1486450896.8,48793,10.25,72722.8,-3.95,-22.73,-27.83,0,*54
1486450898.03,48794,10.25,72720.8,-3.95,-22.87,-27.83,0,*58
1486450899.25,48795,10.25,72718.5,-3.95,-22.93,-27.89,0,*56
1486450900.48,48796,10.25,72716.8,-3.95,-22.87,-27.99,0,*51
1486450901.73,48797,10.25,72720.0,-3.95,-22.93,-27.99,0,*55
1486450902.96,48798,10.25,72722.8,-3.93,-22.87,-27.89,0,*58
1486450904.23,48799,10.25,72720.5,-3.93,-22.77,-27.89,0,*56
1486450905.49,48800,10.25,72724.0,-3.93,-22.77,-27.89,0,*59
1486450906.73,48801,10.25,72722.0,-3.95,-22.77,-27.89,0,*5E
1486450908.0,48802,10.25,72722.8,-3.95,-22.77,-27.83,0,*57
1486450909.27,48803,10.25,72720.8,-3.93,-22.93,-27.99,0,*51
1486450910.55,48804,10.25,72722.8,-3.93,-23.03,-27.99,0,*5E
1486450911.79,48805,10.25,72722.8,-3.93,-22.87,-27.89,0,*53
1486450913.08,48806,10.25,72724.5,-3.93,-22.77,-27.83,0,*55
1486450914.31,48807,10.25,72722.8,-3.93,-22.87,-27.89,0,*51
1486450915.58,48808,10.25,72722.0,-3.93,-22.77,-27.89,0,*51
1486450916.81,48809,10.25,72724.5,-3.93,-22.87,-27.89,0,*5F
1486450918.08,48810,10.25,72720.0,-3.93,-22.93,-27.99,0,*53
1486450919.32,48811,10.25,72718.8,-3.93,-22.93,-27.89,0,*53
1486450920.58,48812,10.25,72722.8,-3.93,-22.93,-27.99,0,*51
1486450921.82,48813,10.25,72722.8,-3.93,-22.87,-27.89,0,*54
1486450923.03,48814,10.25,72724.5,-3.95,-22.93,-27.89,0,*50
1486450924.27,48815,10.25,72720.8,-3.93,-23.09,-28.15,0,*5F
1486450925.56,48816,10.25,72720.0,-3.93,-23.03,-27.99,0,*5D
1486450926.83,48817,10.25,72722.5,-3.95,-23.03,-27.99,0,*5A
1486450928.05,48818,10.25,72726.0,-3.95,-22.93,-27.89,0,*5C
1486450929.29,48819,10.25,72722.3,-3.95,-23.09,-28.05,0,*54
1486450930.58,48820,10.25,72722.0,-3.93,-23.03,-27.99,0,*58
1486450931.82,48821,10.25,72720.0,-3.91,-22.97,-27.99,0,*57
1486450933.11,48822,10.25,72722.5,-3.93,-23.03,-28.05,0,*50
1486450934.35,48823,10.25,72724.5,-3.93,-23.09,-28.15,0,*5A
1486450935.61,48824,10.31,72724.3,-3.91,-23.03,-28.09,0,*58
1486450936.85,48825,10.25,72722.8,-3.91,-22.97,-27.99,0,*53
1486450938.12,48826,10.25,72722.5,-3.93,-23.03,-28.15,0,*55
1486450939.36,48827,10.25,72720.3,-3.93,-23.09,-28.15,0,*5E
1486450940.63,48828,10.25,72722.0,-3.93,-23.13,-28.21,0,*5D
1486450941.92,48829,10.25,72720.5,-3.93,-23.23,-28.21,0,*5F
1486450943.17,48830,10.25,72720.5,-3.93,-23.39,-28.43,0,*58
1486450944.42,48831,10.25,72722.8,-3.93,-23.39,-28.43,0,*59
1486450945.64,48832,10.25,72720.0,-3.95,-23.13,-28.31,0,*51
1486450946.93,48833,10.25,72720.0,-3.97,-23.29,-28.25,0,*5E
1486450948.2,48834,10.25,72722.3,-3.93,-23.29,-28.31,0,*58
1486450949.44,48835,10.25,72722.5,-3.95,-23.13,-28.21,0,*57
1486450950.7,48836,10.25,72720.3,-3.93,-23.23,-28.31,0,*50
1486450951.96,48837,10.25,72716.8,-3.93,-23.39,-28.43,0,*5F
1486450953.19,48838,10.25,72718.8,-3.95,-23.29,-28.37,0,*54
1486450954.43,48839,10.25,72722.0,-3.95,-23.13,-28.21,0,*5B
1486450955.65,48840,10.25,72722.5,-3.95,-23.13,-28.15,0,*52
1486450956.89,48841,10.25,72722.3,-3.95,-23.13,-28.05,0,*52
1486450958.11,48842,10.25,72722.0,-3.95,-23.13,-28.15,0,*50
1486450959.33,48843,10.25,72718.8,-3.95,-23.09,-28.15,0,*5A
1486450960.6,48844,10.25,72724.3,-3.97,-23.09,-28.09,0,*52
1486450961.84,48845,10.25,72720.0,-3.95,-23.23,-28.31,0,*52
1486450963.1,48846,10.25,72722.3,-3.95,-23.23,-28.21,0,*50
1486450964.37,48847,10.25,72724.8,-3.95,-23.03,-28.05,0,*55
1486450965.63,48848,10.25,72720.5,-3.95,-23.03,-27.99,0,*50
1486450966.9,48849,10.25,72722.0,-3.95,-23.03,-27.99,0,*51
1486450968.16,48850,10.25,72722.0,-3.95,-23.03,-27.99,0,*59
1486450969.43,48851,10.31,72724.8,-3.95,-23.03,-28.05,0,*52
1486450970.69,48852,10.25,72720.3,-3.93,-23.09,-28.05,0,*5D
1486450971.98,48853,10.25,72722.8,-3.93,-23.03,-27.99,0,*5C
1486450973.23,48854,10.25,72722.5,-3.95,-23.09,-27.99,0,*57
1486450974.47,48855,10.25,72720.8,-3.95,-23.09,-27.99,0,*56
1486450975.71,48856,10.31,72726.3,-3.95,-23.09,-27.99,0,*55
1486450976.96,48857,10.31,72726.3,-3.95,-23.09,-27.99,0,*54
1486450978.24,48858,10.25,72722.5,-3.93,-23.03,-27.99,0,*57
1486450979.53,48859,10.25,72724.5,-3.93,-23.03,-28.05,0,*5C
1486450980.77,48860,10.25,72722.8,-3.91,-23.03,-27.93,0,*54
1486450982.0,48861,10.25,72720.0,-3.91,-22.97,-27.83,0,*58
1486450983.29,48862,10.25,72722.8,-3.93,-23.03,-27.99,0,*5E
1486450984.58,48863,10.25,72722.3,-3.93,-23.03,-27.99,0,*5F
1486450985.79,48864,10.25,72722.8,-3.91,-22.97,-27.93,0,*5C
1486450987.05,48865,10.25,72724.8,-3.91,-23.03,-28.09,0,*5D
1486450988.32,48866,10.25,72722.3,-3.91,-23.03,-27.99,0,*58
1486450989.55,48867,10.25,72720.3,-3.91,-23.03,-27.93,0,*53
1486450990.78,48868,10.25,72720.3,-3.91,-23.03,-27.93,0,*5C
1486450992.05,48869,10.31,72724.5,-3.91,-23.03,-27.99,0,*57
1486450993.31,48870,10.25,72720.8,-3.93,-23.09,-28.05,0,*5D
1486450994.52,48871,10.25,72722.5,-3.91,-22.97,-27.93,0,*58
1486450995.79,48872,10.25,72720.3,-3.89,-23.03,-27.93,0,*5E
1486450997.08,48873,10.25,72720.0,-3.89,-23.03,-27.99,0,*55
1486450998.37,48874,10.25,72724.5,-3.89,-23.03,-27.99,0,*52
1486450999.66,48875,10.25,72722.8,-3.89,-23.03,-27.99,0,*53
1486451000.93,48876,10.25,72722.5,-3.89,-23.03,-27.77,0,*50
1486451002.22,48877,10.25,72722.5,-3.89,-23.03,-27.99,0,*51
1486451003.43,48878,10.25,72720.3,-3.87,-22.97,-27.93,0,*56
1486451004.64,48879,10.25,72722.5,-3.87,-22.97,-27.93,0,*57
1486451005.84,48880,10.25,72722.3,-3.87,-23.13,-27.93,0,*5C
1486451007.11,48881,10.25,72720.8,-3.87,-23.03,-28.05,0,*5C
1486451008.38,48882,10.25,72724.0,-3.89,-23.09,-27.99,0,*51
1486451009.58,48883,10.25,72718.8,-3.87,-23.13,-27.93,0,*5F
1486451010.79,48884,10.25,72720.3,-3.87,-23.13,-27.93,0,*58
1486451012.03,48885,10.25,72720.5,-3.83,-23.09,-27.99,0,*5C
1486451013.29,48886,10.25,72720.0,-3.87,-23.29,-28.21,0,*55
1486451014.55,48887,10.25,72720.0,-3.87,-23.29,-28.09,0,*5E
1486451015.81,48888,10.25,72722.3,-3.87,-23.19,-28.09,0,*52
1486451017.07,48889,10.25,72720.0,-3.87,-23.19,-28.05,0,*5F
1486451018.29,48890,10.25,72720.8,-3.83,-23.09,-27.89,0,*59
1486451019.53,48891,10.25,72720.0,-3.83,-23.09,-27.99,0,*59
1486451020.77,48892,10.25,72722.3,-3.81,-22.97,-27.89,0,*5F
1486451021.98,48893,10.25,72722.0,-3.83,-22.97,-27.89,0,*5C
1486451023.24,48894,10.25,72720.8,-3.81,-23.09,-27.83,0,*55
1486451024.48,48895,10.31,72722.5,-3.81,-23.09,-27.89,0,*5E
1486451025.7,48896,10.25,72722.8,-3.83,-22.97,-27.89,0,*59
1486451026.94,48897,10.25,72718.3,-3.81,-22.97,-27.89,0,*5A
1486451028.2,48898,10.25,72722.3,-3.81,-23.09,-27.83,0,*59
1486451029.47,48899,10.31,72724.8,-3.81,-23.09,-27.99,0,*53
1486451030.73,48900,10.25,72720.3,-3.81,-23.13,-27.99,0,*59
1486451032.0,48901,10.31,72722.8,-3.81,-23.09,-28.05,0,*59
1486451033.27,48902,10.31,72720.0,-3.81,-23.09,-27.99,0,*50
1486451034.5,48903,10.25,72720.5,-3.79,-23.03,-27.93,0,*56
1486451035.75,48904,10.25,72720.8,-3.77,-23.03,-27.77,0,*55
1486451036.99,48905,10.25,72720.3,-3.79,-23.03,-27.93,0,*50
1486451038.25,48906,10.25,72720.5,-3.79,-23.03,-27.99,0,*59
1486451039.5,48907,10.25,72718.0,-3.79,-23.23,-28.09,0,*5C
1486451040.79,48908,10.25,72722.3,-3.77,-23.19,-27.99,0,*52
1486451042.0,48909,10.25,72722.0,-3.79,-23.09,-27.93,0,*56
1486451043.23,48910,10.25,72716.8,-3.77,-23.09,-27.93,0,*50
1486451044.5,48911,10.31,72720.5,-3.77,-23.09,-27.99,0,*5B
1486451045.78,48912,10.31,72724.3,-3.77,-23.19,-27.99,0,*59
1486451047.07,48913,10.31,72722.3,-3.77,-23.19,-27.99,0,*58
1486451048.35,48914,10.25,72720.8,-3.77,-23.33,-27.99,0,*57
1486451049.64,48915,10.31,72722.3,-3.77,-23.19,-28.09,0,*58
1486451050.92,48916,10.25,72718.5,-3.77,-23.19,-27.99,0,*5D
1486451052.19,48917,10.25,72716.5,-3.77,-23.09,-27.99,0,*5D
1486451053.44,48918,10.31,72720.8,-3.77,-23.23,-27.93,0,*50
1486451054.65,48919,10.25,72718.5,-3.75,-23.13,-27.89,0,*5B
1486451055.86,48920,10.31,72720.5,-3.75,-23.13,-27.89,0,*51
1486451057.07,48921,10.31,72722.8,-3.75,-23.13,-27.77,0,*51
1486451058.27,48922,10.31,72720.0,-3.75,-23.13,-27.93,0,*58
1486451059.48,48923,10.31,72722.0,-3.75,-23.13,-27.93,0,*59
1486451060.71,48924,10.25,72722.8,-3.75,-23.29,-27.93,0,*57
1486451061.97,48925,10.25,72716.8,-3.75,-23.29,-28.05,0,*56
1486451063.24,48926,10.31,72722.5,-3.73,-23.29,-27.89,0,*58
1486451064.53,48927,10.25,72720.8,-3.73,-23.29,-28.05,0,*52
1486451065.82,48928,10.31,72720.5,-3.73,-23.19,-28.05,0,*5E
1486451067.09,48929,10.31,72722.0,-3.73,-23.19,-27.89,0,*54
1486451068.35,48930,10.31,72722.8,-3.73,-23.29,-27.89,0,*5F
1486451069.64,48931,10.31,72722.5,-3.73,-23.29,-28.09,0,*59
1486451070.92,48932,10.31,72722.3,-3.71,-23.29,-28.05,0,*54
1486451072.21,48933,10.31,72724.5,-3.71,-23.29,-28.05,0,*55
1486451073.49,48934,10.31,72720.0,-3.71,-23.23,-28.09,0,*54
1486451074.75,48935,10.25,72718.8,-3.71,-23.43,-28.09,0,*53
1486451076.03,48936,10.31,72722.8,-3.71,-23.29,-28.09,0,*5C
1486451077.28,48937,10.25,72718.3,-3.71,-23.39,-28.09,0,*5C
1486451078.53,48938,10.31,72722.0,-3.69,-23.43,-28.09,0,*57
1486451079.79,48939,10.31,72722.3,-3.71,-23.43,-28.05,0,*53
1486451081.04,48940,10.31,72720.3,-3.71,-23.39,-28.09,0,*5C
1486451082.33,48941,10.31,72720.0,-3.71,-23.29,-27.99,0,*5A
1486451083.59,48942,10.31,72718.8,-3.71,-23.29,-27.89,0,*58
1486451084.85,48943,10.25,72716.0,-3.69,-23.29,-27.99,0,*51
1486451086.08,48944,10.31,72716.8,-3.69,-23.39,-28.05,0,*5D
1486451087.35,48945,10.31,72720.5,-3.69,-23.29,-27.99,0,*57
1486451088.58,48946,10.31,72720.3,-3.69,-23.39,-28.09,0,*53
1486451089.83,48947,10.31,72720.0,-3.69,-23.43,-28.21,0,*55
1486451091.12,48948,10.31,72720.0,-3.67,-23.49,-27.99,0,*52
1486451092.38,48949,10.31,72720.5,-3.67,-23.49,-28.15,0,*58
1486451093.65,48950,10.31,72720.3,-3.67,-23.53,-28.15,0,*5B
1486451094.95,48951,10.31,72718.3,-3.67,-23.65,-28.21,0,*58
1486451096.21,48952,10.31,72720.0,-3.67,-23.65,-28.15,0,*5C
1486451097.48,48953,10.31,72720.5,-3.67,-23.53,-28.15,0,*58
1486451098.75,48954,10.31,72720.8,-3.67,-23.65,-28.15,0,*5A
1486451100.04,48955,10.31,72722.3,-3.67,-23.65,-28.21,0,*5C
1486451101.29,48956,10.31,72718.5,-3.65,-23.65,-28.31,0,*5C
1486451102.58,48957,10.31,72722.0,-3.67,-23.65,-28.21,0,*5E
1486451103.87,48958,10.31,72718.8,-3.67,-23.65,-28.21,0,*51
1486451105.14,48959,10.31,72720.8,-3.67,-23.53,-28.15,0,*52
1486451106.43,48960,10.31,72720.8,-3.67,-23.53,-27.99,0,*53
1486451107.7,48961,10.31,72720.3,-3.67,-23.53,-27.93,0,*58
1486451108.99,48962,10.25,72716.5,-3.67,-23.53,-27.99,0,*51
1486451110.28,48963,10.31,72720.3,-3.67,-23.53,-28.05,0,*5A
1486451111.55,48964,10.31,72718.3,-3.65,-23.65,-28.05,0,*5A
1486451112.82,48965,10.31,72720.3,-3.67,-23.65,-28.15,0,*58
1486451114.08,48966,10.31,72720.5,-3.65,-23.65,-28.21,0,*5E
1486451115.33,48967,10.31,72718.8,-3.65,-23.79,-28.21,0,*52
1486451116.57,48968,10.31,72722.5,-3.65,-23.65,-28.15,0,*57
1486451117.84,48969,10.31,72720.0,-3.65,-23.53,-28.05,0,*52
1486451119.1,48970,10.31,72718.5,-3.65,-23.65,-28.05,0,*5F
1486451120.34,48971,10.31,72718.8,-3.65,-23.69,-28.15,0,*53
1486451121.58,48972,10.31,72720.0,-3.65,-23.79,-28.21,0,*56
1486451122.85,48973,10.31,72720.8,-3.65,-23.85,-28.21,0,*54
1486451124.09,48974,10.31,72720.5,-3.65,-23.85,-28.31,0,*52
1486451125.33,48975,10.31,72718.3,-3.65,-23.85,-28.15,0,*55
1486451126.57,48976,10.31,72722.3,-3.65,-23.69,-28.15,0,*54
1486451127.79,48977,10.31,72722.8,-3.65,-23.79,-28.15,0,*54
1486451129.05,48978,10.31,72720.0,-3.65,-23.85,-28.21,0,*5F
1486451130.29,48979,10.31,72716.5,-3.65,-23.89,-28.47,0,*52
1486451131.53,48980,10.31,72718.5,-3.65,-24.05,-28.47,0,*57
1486451132.74,48981,10.31,72722.0,-3.65,-23.89,-28.15,0,*52
1486451134.01,48982,10.31,72716.5,-3.61,-23.85,-28.25,0,*5A
1486451135.27,48983,10.31,72716.5,-3.61,-23.99,-28.25,0,*56
1486451136.54,48984,10.31,72716.8,-3.61,-23.85,-28.25,0,*5C
1486451137.78,48985,10.31,72718.5,-3.61,-23.79,-28.09,0,*50
1486451139.02,48986,10.31,72718.3,-3.61,-23.95,-28.15,0,*5C
1486451140.26,48987,10.31,72718.5,-3.61,-23.75,-28.09,0,*5E
1486451141.5,48988,10.31,72720.0,-3.61,-23.79,-28.09,0,*5D
1486451142.74,48989,10.31,72720.8,-3.61,-23.75,-27.99,0,*56
1486451143.98,48990,10.31,72720.8,-3.61,-23.79,-28.09,0,*54
1486451145.24,48991,10.31,72718.8,-3.61,-23.85,-28.09,0,*56
1486451146.5,48992,10.31,72720.3,-3.59,-23.89,-28.09,0,*52
1486451147.74,48993,10.31,72720.5,-3.61,-23.89,-28.05,0,*54
1486451148.99,48994,10.31,72718.0,-3.61,-23.99,-28.31,0,*55
1486451150.25,48995,10.31,72722.8,-3.59,-23.89,-28.21,0,*5F
1486451151.51,48996,10.31,72718.5,-3.61,-23.95,-27.99,0,*56
1486451152.77,48997,10.31,72718.5,-3.59,-23.89,-28.09,0,*57
1486451154.04,48998,10.31,72720.3,-3.61,-23.85,-28.09,0,*5F
1486451155.3,48999,10.31,72722.8,-3.59,-23.89,-28.09,0,*59
1486451156.54,49000,10.31,72718.8,-3.61,-23.89,-28.05,0,*56
1486451157.82,49001,10.31,72716.8,-3.59,-23.95,-28.05,0,*51
1486451159.12,49002,10.31,72720.5,-3.59,-24.11,-28.25,0,*5B
1486451160.38,49003,10.31,72722.5,-3.59,-24.05,-28.21,0,*5B
1486451161.65,49004,10.31,72718.0,-3.59,-24.05,-28.21,0,*5C
1486451162.91,49005,10.31,72718.0,-3.61,-23.85,-28.09,0,*53
1486451164.2,49006,10.31,72716.5,-3.59,-23.95,-28.09,0,*5A
1486451165.46,49007,10.31,72714.8,-3.61,-23.99,-28.09,0,*5C
1486451166.72,49008,10.31,72718.3,-3.61,-23.99,-28.09,0,*53
1486451168.01,49009,10.31,72716.3,-3.59,-24.11,-28.21,0,*54
1486451169.31,49010,10.31,72718.5,-3.59,-24.21,-28.25,0,*5B
1486451170.55,49011,10.31,72716.8,-3.61,-24.31,-28.43,0,*50
1486451171.81,49012,10.31,72716.8,-3.59,-24.21,-28.37,0,*5A
1486451173.08,49013,10.31,72718.8,-3.61,-24.25,-28.43,0,*57
1486451174.35,49014,10.31,72722.0,-3.59,-24.05,-28.09,0,*57
1486451175.61,49015,10.31,72716.0,-3.59,-24.05,-28.05,0,*5A
1486451176.9,49016,10.31,72718.3,-3.59,-23.95,-28.05,0,*57
1486451178.14,49017,10.31,72718.8,-3.59,-24.05,-27.93,0,*58
1486451179.4,49018,10.31,72716.8,-3.59,-23.95,-27.89,0,*52
1486451180.67,49019,10.31,72716.5,-3.61,-23.99,-27.99,0,*55
1486451181.93,49020,10.31,72716.8,-3.59,-23.95,-27.89,0,*59
1486451183.19,49021,10.31,72718.8,-3.59,-23.95,-27.89,0,*58
1486451184.45,49022,10.31,72718.3,-3.59,-23.95,-27.89,0,*5B
1486451185.72,49023,10.31,72718.5,-3.59,-23.95,-27.89,0,*5A
1486451186.93,49024,10.31,72716.8,-3.57,-24.05,-27.93,0,*56
1486451188.17,49025,10.31,72716.3,-3.57,-24.05,-27.83,0,*56
1486451189.38,49026,10.31,72720.0,-3.57,-24.05,-27.93,0,*54
1486451190.66,49027,10.31,72718.3,-3.55,-23.99,-27.83,0,*54
1486451191.9,49028,10.31,72716.5,-3.57,-24.05,-27.83,0,*5B
1486451193.12,49029,10.31,72718.3,-3.57,-24.05,-27.71,0,*57
1486451194.33,49030,10.31,72718.8,-3.57,-24.05,-27.71,0,*5F
1486451195.57,49031,10.31,72718.3,-3.57,-24.05,-27.83,0,*53
1486451196.81,49032,10.31,72718.3,-3.57,-24.05,-27.83,0,*50
1486451198.07,49033,10.31,72718.3,-3.55,-23.99,-27.77,0,*5A
1486451199.29,49034,10.31,72718.0,-3.57,-24.05,-27.67,0,*5C
1486451200.55,49035,10.31,72718.0,-3.55,-23.99,-27.67,0,*5D
1486451201.76,49036,10.31,72716.8,-3.57,-24.05,-27.71,0,*59
1486451203.0,49037,10.31,72716.3,-3.57,-24.11,-27.71,0,*5D
1486451204.26,49038,10.31,72718.5,-3.55,-23.99,-27.67,0,*50
1486451205.54,49039,10.31,72718.3,-3.55,-23.99,-27.61,0,*57
1486451206.81,49040,10.31,72722.0,-3.55,-23.99,-27.67,0,*5F
1486451208.09,49041,10.31,72716.5,-3.55,-23.99,-27.61,0,*58
1486451209.35,49042,10.31,72716.3,-3.55,-23.99,-27.67,0,*5D
1486451210.61,49043,10.31,72718.8,-3.55,-23.99,-27.67,0,*5C
1486451211.84,49044,10.31,72714.3,-3.55,-24.05,-27.77,0,*58
1486451213.08,49045,10.31,72714.5,-3.55,-24.05,-27.77,0,*59
1486451214.29,49046,10.31,72718.3,-3.53,-24.05,-27.67,0,*5D
1486451215.53,49047,10.31,72718.5,-3.55,-24.05,-27.77,0,*5B
1486451216.79,49048,10.31,72716.3,-3.57,-24.21,-27.83,0,*5B
1486451218.05,49049,10.31,72718.0,-3.55,-24.21,-27.77,0,*53
1486451219.31,49050,10.31,72716.5,-3.55,-24.21,-27.77,0,*5B
1486451220.55,49051,10.31,72712.8,-3.53,-24.15,-27.77,0,*5B
1486451221.81,49052,10.31,72716.3,-3.55,-24.15,-27.67,0,*5F
1486451223.05,49053,10.31,72716.8,-3.53,-24.21,-27.67,0,*5F
1486451224.29,49054,10.31,72718.5,-3.53,-24.47,-27.83,0,*52
1486451225.54,49055,10.31,72712.3,-3.53,-24.31,-27.83,0,*52
1486451226.82,49056,10.31,72716.8,-3.55,-24.15,-27.61,0,*5D
1486451228.08,49057,10.31,72718.3,-3.55,-24.21,-27.67,0,*5D
1486451229.37,49058,10.31,72712.0,-3.55,-24.15,-27.61,0,*53
1486451230.65,49059,10.31,72720.5,-3.55,-24.21,-27.61,0,*55
1486451231.92,49060,10.31,72718.5,-3.55,-24.35,-27.83,0,*56
1486451233.15,49061,10.31,72714.8,-3.55,-24.35,-27.77,0,*5C
1486451234.37,49062,10.31,72716.3,-3.53,-24.35,-27.67,0,*58
1486451235.58,49063,10.31,72718.0,-3.53,-24.35,-27.67,0,*59
1486451236.81,49064,10.31,72718.3,-3.53,-24.31,-27.67,0,*5A
1486451238.04,49065,10.31,72718.3,-3.55,-24.47,-27.77,0,*5D
1486451239.27,49066,10.31,72714.0,-3.55,-24.35,-27.77,0,*5B
1486451240.51,49067,10.31,72718.5,-3.55,-24.47,-27.77,0,*5F
1486451241.75,49068,10.38,72722.5,-3.55,-24.31,-27.67,0,*50
1486451243.02,49069,10.31,72716.5,-3.55,-24.31,-27.61,0,*57
1486451244.26,49070,10.31,72714.0,-3.55,-24.51,-27.89,0,*5F
1486451245.52,49071,10.31,72718.0,-3.55,-24.51,-27.83,0,*54
1486451246.76,49072,10.31,72716.8,-3.55,-24.47,-27.67,0,*5A
1486451248.0,49073,10.31,72716.3,-3.55,-24.31,-27.51,0,*5F
1486451249.24,49074,10.31,72716.5,-3.55,-24.31,-27.51,0,*58
1486451250.5,49075,10.31,72718.5,-3.55,-24.35,-27.61,0,*5E
1486451251.77,49076,10.31,72714.8,-3.55,-24.47,-27.61,0,*58
1486451253.01,49077,10.31,72714.8,-3.55,-24.51,-27.67,0,*58
1486451254.25,49078,10.31,72716.3,-3.55,-24.61,-27.67,0,*54
1486451255.51,49079,10.31,72716.8,-3.55,-24.47,-27.61,0,*57
1486451256.75,49080,10.31,72716.5,-3.55,-24.47,-27.51,0,*52
1486451258.01,49081,10.38,72720.3,-3.55,-24.51,-27.61,0,*57
1486451259.23,49082,10.31,72716.8,-3.53,-24.47,-27.51,0,*56
1486451260.5,49083,10.31,72716.5,-3.55,-24.31,-27.35,0,*52
1486451261.76,49084,10.31,72714.3,-3.55,-24.35,-27.45,0,*56
1486451263.02,49085,10.31,72714.3,-3.55,-24.31,-27.35,0,*54
1486451264.31,49086,10.31,72716.0,-3.55,-24.21,-27.35,0,*56
1486451265.55,49087,10.38,72718.5,-3.53,-24.35,-27.35,0,*54
1486451266.8,49088,10.31,72718.3,-3.53,-24.51,-27.61,0,*58
1486451268.02,49089,10.38,72718.5,-3.53,-24.51,-27.51,0,*5A
1486451269.26,49090,10.31,72718.5,-3.53,-24.47,-27.35,0,*57
1486451270.51,49091,10.31,72718.5,-3.53,-24.51,-27.35,0,*51
1486451271.72,49092,10.31,72714.3,-3.53,-24.61,-27.67,0,*56
1486451272.96,49093,10.38,72718.5,-3.53,-24.61,-27.61,0,*51
1486451274.23,49094,10.31,72718.3,-3.55,-24.47,-27.35,0,*55
1486451275.49,49095,10.31,72714.8,-3.55,-24.35,-27.35,0,*51
1486451276.74,49096,10.31,72716.5,-3.55,-24.31,-27.29,0,*5B
1486451278.0,49097,10.31,72714.8,-3.55,-24.31,-27.19,0,*59
1486451279.27,49098,10.31,72716.5,-3.57,-24.41,-27.35,0,*5D
1486451280.51,49099,10.31,72714.0,-3.55,-24.51,-27.29,0,*52
1486451281.77,49100,10.31,72716.0,-3.55,-24.67,-27.51,0,*59
1486451283.02,49101,10.31,72716.0,-3.53,-24.47,-27.35,0,*5E
1486451284.26,49102,10.31,72714.8,-3.53,-24.35,-27.35,0,*58
1486451285.48,49103,10.31,72718.8,-3.53,-24.35,-27.29,0,*54
1486451286.74,49104,10.31,72718.0,-3.51,-24.41,-27.13,0,*5B
1486451288.0,49105,10.31,72714.8,-3.53,-24.67,-27.45,0,*5F
1486451289.24,49106,10.31,72716.0,-3.51,-24.57,-27.29,0,*57
1486451290.48,49107,10.31,72716.3,-3.53,-24.51,-27.35,0,*5F
1486451291.72,49108,10.31,72714.8,-3.53,-24.35,-27.19,0,*5C
1486451292.94,49109,10.31,72712.0,-3.53,-24.35,-27.29,0,*5E
1486451294.16,49110,10.38,72716.5,-3.53,-24.35,-27.29,0,*56
1486451295.38,49111,10.31,72714.0,-3.53,-24.35,-27.13,0,*5E
1486451296.6,49112,10.31,72716.3,-3.53,-24.47,-27.29,0,*51
1486451297.84,49113,10.31,72716.5,-3.51,-24.47,-27.13,0,*5B
1486451299.08,49114,10.31,72716.0,-3.51,-24.47,-27.07,0,*59